Regional Weather Roundup
Issued by NWS Wakefield, VA

Home | Current Version | Previous Version | Graphics & Text | Print | Product List | Glossary On
Versions: 1 2 3 4 5 6 7 8 9 10 11 12 13 14 15 16 17 18 19 20 21 22 23 24 25 26 27 28 29 30 31 32 33 34 35 36 37 38 39 40 41 42 43 44 45 46 47 48 49 50
000
ASUS41 KAKQ 032015
RWRAKQ

REGIONAL WEATHER ROUNDUP
NATIONAL WEATHER SERVICE WAKEFIELD VA
400 PM EDT MON AUG 03 2015

Note: "fair" indicates few or no clouds below 12,000 feet with no
significant weather and/or obstructions to visibility. * = Denotes
station may not report precipitation (e.g., rain,snow,etc.),
thunder or fog.

VAZ042-051-052>054-056-032100-
NORTHERN VIRGINIA

CITY           SKY/WX    TMP DP  RH WIND       PRES   REMARKS
WASH NATIONAL  PTSUNNY   92  63  38 S12       29.83F
DULLES         PTSUNNY   88  62  41 S13       29.83F
FORT BELVOIR   PTSUNNY   90  65  43 SE8       29.82F
QUANTICO       PTSUNNY   94  62  34 S8        29.80F HX  95
FREDERICKSBRG* MOSUNNY   93  63  36 SW13      29.83S
STAFFORD*      MOSUNNY   91  60  35 S10       29.88S
WARRENTON      MOSUNNY   91  67  45 SW8       29.84S
CULPEPER*      MOSUNNY   88  64  45 SW6       29.85F
MANASSAS*      SUNNY     90  63  40 S9        29.84S
LEESBURG*      MOSUNNY   91  64  40 SW15      29.84F
WINCHESTER     MOSUNNY   91  59  33 SW10G16   29.83S
FRONT ROYAL*   FAIR      88  63  42 SW5       29.83F
LURAY*         FAIR      91  61  35 SW12      29.85F
$$

VAZ048-049-060>072-079>083-032100-
CENTRAL AND SOUTH CENTRAL VIRGINIA

CITY           SKY/WX    TMP DP  RH WIND       PRES   REMARKS
RICHMOND       PTSUNNY   92  69  47 S14       29.86S HX  97
CHESTERFIELD*  FAIR      90  64  43 S12       29.88R
PETERSBURG*    MOSUNNY   89  76  65 SW5       29.88S HX 100
HANOVER        SUNNY     91  64  40 SW9       29.87S
TAPPAHANNOCK*  SUNNY     88  67  49 CALM      29.87S
QUINTON*       FAIR      88  71  57 S6        29.86S
CHARLOTTSVILLE SUNNY     90  60  36 S7        29.86S
GORDONSVILLE*  FAIR      90  63  40 SW7       29.85S
ORANGE*        MOSUNNY   90  63  40 SW12      29.87S
LOUISA*        SUNNY     91  61  35 SW7       29.85S
BUMPASS*       FAIR      91  65  42 MISG      29.85S
FARMVILLE*     NOT AVBL
CREWE*         FAIR     N/A N/A N/A CALM      29.88S
FORT PICKETT*  FAIR      89  69  52 S7G22     29.88F
CHASE CITY*    FAIR      93  69  45 S5        29.89S HX  98
CLARKSVILLE*   FAIR      90  68  48 CALM      29.89F
SOUTH HILL*    PTSUNNY   88  72  59 SW9       29.95F HX  95
LAWRENCEVILLE* FAIR      86  75  70 CALM      29.88F HX  95
EMPORIA*       PTSUNNY   88  66  48 S7        29.89S
$$

VAZ088>098-032100-
SOUTHEAST VIRGINIA

CITY           SKY/WX    TMP DP  RH WIND       PRES   REMARKS
NORFOLK        MOSUNNY   91  68  46 S12G22    29.87F HX  95
VIRGINIA BEACH MOSUNNY   92  71  50 SW14      29.87F HX  98
NORFOLK NAVAL  PTSUNNY   89  70  53 SW8G17    29.89F
WEST POINT*    MOSUNNY   90  67  45 S8G18     29.88S
SALUDA*        FAIR      89  72  57 SW12      29.86F HX  96
NEWPORT NEWS   MOSUNNY   90  69  50 SW10      29.87F
LANGLEY AFB    PTSUNNY   89  71  56 S15       29.86F
FORT EUSTIS    LGT RAIN  88  68  51 W9        29.85F
WILLIAMSBURG*  PTSUNNY   91  72  52 W9G20     29.88F HX  98
HR EXEC AP*    FAIR      91  72  52 S9G18     29.90F HX  98
FRANKLIN*      PTSUNNY   91  71  51 SE9       29.88S HX  97
WAKEFIELD      PTSUNNY   90  69  50 SW5       29.87F
$$

VAZ020-022-025-037-045-032100-
WEST CENTRAL AND SOUTHWEST VIRGINIA

CITY           SKY/WX    TMP DP  RH WIND       PRES   REMARKS
STAUNTON*      MOSUNNY   91  57  32 S13G22    29.91S
WAYNESBORO*    FAIR      85  59  41 W7        29.91F
HOT SPRINGS VA SUNNY     79  57  48 SW12G17   30.04F
LYNCHBURG      MOSUNNY   88  61  40 VRB5      29.91F
DANVILLE       MOSUNNY   92  64  39 SW7       29.90S
SOUTH BOSTON*  FAIR      91  63  39 SW7       29.89F
MARTINSVILLE   SUNNY     92  57  30 CALM      29.93F
ROANOKE        MOSUNNY   90  55  30 VRB7G16   29.93F
BLACKSBURG     SUNNY     86  59  40 W7        30.01S
DUBLIN*          N/A     86  57  36 W9        30.00S
MARION*        SUNNY     82  58  43 W13       30.05S
HILLSVILLE*    SUNNY     83  57  40 SW7       30.01F
RICHLANDS*     FAIR      81  60  48 W5        30.03F
WISE*          SUNNY     84  54  34 S6        30.05S
ABINGDON*      SUNNY     86  53  32 NW7       30.01F
$$

MDZ021>025-VAZ099-100-032100-
SOUTHERN MARYLAND AND THE DELMARVA PENINSULA

CITY           SKY/WX    TMP DP  RH WIND       PRES   REMARKS
PATUXENT RIVER MOSUNNY   89  68  49 S10       29.84F
BAY BRIDGE APT   N/A     88  61  40 S12       29.82F
LEONARDTOWN    SUNNY     90  64  43 S7        29.86F
DOVER          SUNNY     91  67  45 SW14G23   29.81F
GEORGETOWN     SUNNY     90  63  40 SW12      29.85F
EASTON         MOSUNNY   91  64  40 SW14G22   29.87F
CAMBRIDGE      SUNNY     88  64  45 S12       29.84F
SALISBURY      SUNNY     89  64  43 SW12      29.86S
OCEAN CITY     SUNNY     87  73  62 SW14G24   29.86S
WALLOPS ISLAND SUNNY     85  75  72 S22       29.88S
ACCOMACK*      PTSUNNY   88  68  51 S15       29.88S
$$

NCZ012>017-030>032-032100-
NORTH CENTRAL AND EASTERN NORTH CAROLINA

CITY           SKY/WX    TMP DP  RH WIND       PRES   REMARKS
ROANOKE RAPIDS FAIR      91  66  43 S12       29.88F
RALEIGH        PTSUNNY   94  64  37 SW9       29.90F HX  95
ELIZABETH CITY MOSUNNY   86  73  65 S12       29.91F
AHOSKIE*       MOSUNNY   91  66  43 S9        29.88F
EDENTON*         N/A     87  73  64 S15G21    29.92F
CURRITUCK*     MOSUNNY   87  71  58 S6        29.91F
KILL DEVIL HLS MOSUNNY   82  72  69 S7        29.93F
MANTEO         MOSUNNY   80  72  76 SW21      29.95F
CAPE HATTERAS  LGT RAIN  74  71  91 SW10      29.98F
TARBORO*         N/A     93  68  43 S6        29.89F HX  97
GOLDSBORO      MOSUNNY   93  72  49 SE12      29.87F HX 100
WASHINGTON     LGT RAIN  78  69  75 S8        29.92F
GREENVILLE     SUNNY     91  70  49 SW7       29.92F HX  97
NEW BERN       PTSUNNY   80  72  76 SW9G20    29.96F
WILMINGTON     HVY RAIN  73  71  93 SW14G28   29.99R VSB 1/2
$$

VAZ048-032100-
ELSEWHERE

CITY           SKY/WX    TMP DP  RH WIND       PRES   REMARKS
HARRISBURG PA  PTSUNNY   87  62  43 SW8       29.79F
BALTIMORE      PTSUNNY   91  58  32 SW8       29.81S
ANNAPOLIS      MOSUNNY   87  62  43 S15       29.82S
ANDREWS AFB    PTSUNNY   89  62  40 S15       29.83S
PHILADELPHIA   MOSUNNY   92  58  31 SW17G28   29.80F
HENDERSON NC   MOSUNNY   89  65  45 NW7       29.90F
GREENSBORO     PTSUNNY   91  60  35 W10       29.91F
ROCKY MOUNT    MOSUNNY   96  66  37 S8        29.89F HX  99
$$

VAZ100-032100-
MARINE

STATION/POSITION TIME  TEMP    WIND        PRES    WAVE   SWELL
                       AIR SEA DIR/SP/G            HT/PER HT/PER
                 (UTC) (F)     (DEG/KT/KT) (MB)    (FT/S) (FT/S)
BRANDYWINE LGT   1900   78 76  160/ 10/ 12 1010.9F
CAPE MAY NJ      1900   80 75  160/ 13/ 17 1010.5F
LEWES DE         1900   89 73  260/ 11/ 16 1010.6F
15NM E FENWICK I 1950   80 80  200/ 19/ 23 1011.3F   3/ 5   2/ 6
OCEAN-CITY-INLET 1900   80 77  200/ 17/ 21 1010.5F
WACHAPREAGUE VA  1900   85 87  200/ 12/ 16 1012.0S
GOOSES REEF MD   2000   86 83  210/ 12/ 16 1011.3F
COVE POINT MD    1900   85     230/ 12/ 15 1011.6F
SOLOMONS ISLAND  1900      83                N/A
BISHOPS HEAD MD  1900   84 86  180/ 12/ 14 1010.5F
PINEY POINT MD   1900          230/  7/  8   N/A
POTOMAC MD       2000   87 84  230/  8/ 10 1009.8F   1/ 2
CAMBRIDGE MD     1900   87 84  210/  8/ 12 1010.1F
LEWISETTA VA     1900   86 85  220/  9/ 11 1010.7F
RAPPAHANNOCK LGT 1900          170/ 13/ 14 1012.2F
STINGRAY PT      2000   85 84  160/ 14/ 17 1011.3F   1/ 2
YORK RVR RNG VA  1900   87     210/ 12/ 14 1011.1F
YORKTOWN VA      1900   88 84  240/ 10/ 17 1011.3F
JAMESTOWN VA     2000   82 87  200/  8/ 12   N/A
DOMINION TERM VA 1900   87     200/ 10/ 12 1011.7F
KIPTOPEKE VA     1900      81  170/ 12/ 14   N/A
CHES BAY BRIDGE  1900   87 77  190/ 13/ 15 1011.6F
CAPE HENRY VA    1900   89     180/  9/ 14   N/A
CHESAPEAKE LGHT  1900   81     180/ 22/ 25 1012.7S
WILLOUBY STN VA  1900   88     190/ 15/ 18 1012.8F
CAPE HENRY BUOY  1928      82                N/A     3/ 4   2/12
1ST LANDING BUOY 2000      80              1011.5F   1/ 2
CAPE CHARLES BUO 1926      82                N/A     3/ 4   2/12
OFFSHORE WE BUOY 1911      82                N/A     4/ 5   2/12
64NM E OF VA BCH 1950   79 81  220/ 21/ 23 1013.0F   4/ 5   2/ 8
DUCK PIER NC     1900   81 65  200/ 14/ 17 1012.9R
44100 DUCK FRF   1924      80                N/A     3/12   2/12
44056 DUCK FRF   1911      78                N/A     2/13
OREGON INLET NC  1900   77 82  190/ 19/ 22 1014.7R
HATTERAS NC      1900   72 80  210/ 11/ 15 1015.5S
DIAMOND SHLS NC  1950   75 84  240/ 10/ 14 1016.0F   3/11   3/11


USA.gov is the U.S. government's official web portal to all federal, state and local government web resources and services.